TimeEST,TemperatureF,Dew PointF,Humidity,Sea Level PressureIn,VisibilityMPH,Wind Direction,Wind SpeedMPH,Gust SpeedMPH,PrecipitationIn,Events,Conditions,WindDirDegrees,DateUTC
12:53 AM,28.9,21.9,75,30.26,10.0,Calm,Calm,-,N/A,,Clear,0,2012-12-15 05:53:00
1:53 AM,28.9,23.0,78,30.26,10.0,Calm,Calm,-,N/A,,Clear,0,2012-12-15 06:53:00
2:53 AM,30.9,21.9,69,30.27,10.0,Calm,Calm,-,N/A,,Clear,0,2012-12-15 07:53:00
3:53 AM,28.0,23.0,81,30.25,10.0,Calm,Calm,-,N/A,,Clear,0,2012-12-15 08:53:00
4:53 AM,27.0,21.0,78,30.26,10.0,Calm,Calm,-,N/A,,Clear,0,2012-12-15 09:53:00
5:53 AM,28.0,21.9,78,30.27,10.0,Calm,Calm,-,N/A,,Clear,0,2012-12-15 10:53:00
6:53 AM,30.0,21.9,72,30.28,10.0,Calm,Calm,-,N/A,,Clear,0,2012-12-15 11:53:00
7:53 AM,28.0,21.9,78,30.29,9.0,Calm,Calm,-,N/A,,Clear,0,2012-12-15 12:53:00
8:53 AM,30.9,25.0,79,30.30,6.0,Calm,Calm,-,N/A,,Haze,0,2012-12-15 13:53:00
9:53 AM,35.1,27.0,72,30.31,9.0,Calm,Calm,-,N/A,,Clear,0,2012-12-15 14:53:00
10:53 AM,44.1,27.0,51,30.27,10.0,Calm,Calm,-,N/A,,Clear,0,2012-12-15 15:53:00
11:53 AM,46.0,27.0,47,30.25,10.0,SE,3.5,-,N/A,,Clear,130,2012-12-15 16:53:00
12:53 PM,50.0,27.0,41,30.22,10.0,SE,8.1,-,N/A,,Clear,130,2012-12-15 17:53:00
1:53 PM,50.0,26.1,39,30.19,10.0,Variable,4.6,-,N/A,,Clear,0,2012-12-15 18:53:00
2:53 PM,51.1,26.1,38,30.17,10.0,ESE,5.8,-,N/A,,Clear,110,2012-12-15 19:53:00
3:53 PM,50.0,25.0,38,30.15,10.0,ESE,4.6,-,N/A,,Clear,120,2012-12-15 20:53:00
4:53 PM,48.0,27.0,44,30.14,10.0,ESE,3.5,-,N/A,,Clear,110,2012-12-15 21:53:00
5:53 PM,46.9,27.0,46,30.15,10.0,Calm,Calm,-,N/A,,Clear,0,2012-12-15 22:53:00
6:53 PM,46.0,28.9,51,30.13,10.0,ESE,3.5,-,N/A,,Mostly Cloudy,120,2012-12-15 23:53:00
7:53 PM,46.9,30.0,52,30.12,10.0,SE,4.6,-,N/A,,Overcast,130,2012-12-16 00:53:00
8:53 PM,46.9,26.1,44,30.12,10.0,SE,4.6,-,N/A,,Overcast,140,2012-12-16 01:53:00
9:53 PM,46.9,27.0,46,30.11,10.0,SSE,6.9,-,N/A,,Overcast,150,2012-12-16 02:53:00
10:53 PM,46.0,28.0,50,30.11,10.0,ESE,3.5,-,N/A,,Overcast,120,2012-12-16 03:53:00
11:53 PM,46.0,28.0,50,30.11,10.0,Calm,Calm,-,N/A,,Overcast,0,2012-12-16 04:53:00